Location: Las Vegas
(36.1750°N, 115.1360°W)
Time: 06:57:37
(UTC-08:00)

Amateur Radio Satellites - All Passes

Search period start: 22 December 2014 06:27
Search period end: 23 December 2014 06:27
Location: Las Vegas, 36.1750°N, 115.1360°W

Satellite Date Start Highest point End Downlink Frequencies (MHz)
Time Altitude Azimuth
Cubesat XI-IV 22 Dec 06:39:16 06:44:17 44° 289° (WNW) 06:49:18 437.490
CUBESAT XI-V 22 Dec 06:58:03 07:00:35 14° 268° (W) 07:03:07 437.345
HO-68 22 Dec 07:12:29 07:16:33 16° 92° (E) 07:20:35 435.675
CUTE-I 22 Dec 07:12:47 07:16:50 23° 294° (WNW) 07:20:52 437.470
VERMONT LUNAR 22 Dec 07:34:26 07:37:31 29° 212° (SSW) 07:40:35 437.305
MaSat-1 22 Dec 07:40:38 07:42:56 80° 113° (ESE) 07:45:09 437.345
PHONESAT 2.4 22 Dec 07:57:01 08:00:16 31° 211° (SSW) 08:03:30 2401.200-2431.200
AAUSAT CUBESAT 2 22 Dec 07:57:47 08:00:29 16° 93° (E) 08:03:10 437.432
CUSAT 1 22 Dec 08:04:04 08:06:42 18° 83° (E) 08:09:51 437.405
BRITE-PL 22 Dec 08:10:24 08:15:06 48° 100° (E) 08:20:08 437.365/2234.400
CANX-2 22 Dec 08:16:51 08:21:04 51° 100° (E) 08:25:14 2200.000
GOMX 1 22 Dec 08:27:36 08:32:22 52° 100° (E) 08:37:26 467.674
CUBEBUG 2 22 Dec 08:28:53 08:31:01 13° 92° (E) 08:33:10 437.445
COMPASS 1 22 Dec 08:33:18 08:37:28 51° 100° (E) 08:41:35 437.405
DELFI C3 22 Dec 08:39:16 08:42:15 19° 95° (E) 08:45:13 145.870
SEEDS 22 Dec 08:41:22 08:45:40 79° 102° (ESE) 08:49:56 437.485
ANTELSAT 22 Dec 08:42:23 08:45:39 21° 68° (ENE) 08:48:58 437.575/2403.000
RS-15 22 Dec 08:42:45 08:45:35 11° 97° (E) 08:48:23 29.354- 29.394
DOVE 4 22 Dec 08:44:19 08:49:08 57° 100° (E) 08:54:11 437.250
CUTE 1.7 + AOD 2 22 Dec 08:47:20 08:51:39 75° 284° (WNW) 08:55:56 437.475
CINEMA 3 22 Dec 08:56:00 09:00:37 45° 99° (E) 09:05:22 145.822/145.860
POPSAT HIP 1 22 Dec 08:56:27 08:59:17 18° 68° (ENE) 09:02:08 437.405
FUNcube-1 22 Dec 08:56:34 08:59:43 18° 94° (E) 09:02:53 145.935
HO-68 22 Dec 08:57:44 09:04:54 80° 287° (WNW) 09:12:01 435.675
O/OREOS (USA 219) 22 Dec 08:57:52 09:01:16 21° 61° (ENE) 09:04:40 437.305
UWE-3 22 Dec 09:01:36 09:05:27 26° 96° (E) 09:09:20 435.000/436.395/437.385
DANDE 22 Dec 09:03:49 09:07:12 84° 97° (E) 09:11:49 436.750
DX 1 22 Dec 09:11:11 09:15:19 41° 99° (E) 09:19:25 434.975-435.025
BUGSAT 1 22 Dec 09:12:52 09:15:58 21° 69° (ENE) 09:19:02 437.445
TIGRISAT 22 Dec 09:15:36 09:19:46 47° 73° (ENE) 09:24:03 435.000
HUMSAT D 22 Dec 09:16:50 09:19:39 17° 94° (E) 09:22:27 437.325/437.525
DUCHIFAT 1 22 Dec 09:22:19 09:26:08 35° 72° (ENE) 09:29:57 145.980
AISAT 22 Dec 09:23:03 09:26:09 18° 95° (E) 09:29:13 437.250
Oscar 11 22 Dec 09:30:12 09:34:35 81° 283° (WNW) 09:38:55 145.826/435.025
AAUSAT CUBESAT 2 22 Dec 09:32:23 09:36:13 34° 288° (WNW) 09:40:02 437.432
QB50P2 22 Dec 09:36:59 09:41:05 54° 74° (ENE) 09:45:13 145.880/145.840
UKube-1 22 Dec 09:39:59 09:44:20 90° 106° (ESE) 09:48:40 .
UNISAT 6 22 Dec 09:45:37 09:49:57 74° 258° (WSW) 09:54:26 437.425
CUSAT 1 22 Dec 09:46:22 09:49:28 24° 292° (WNW) 09:53:21 437.405
POLYITAN 1 22 Dec 09:46:26 09:50:37 72° 76° (ENE) 09:54:50 437.675
NANOSAT C BR1 22 Dec 09:46:54 09:51:05 72° 76° (ENE) 09:55:17 145.865
BRITE-PL 22 Dec 09:50:10 09:53:17 17° 292° (WNW) 09:56:33 437.365/2234.400
CANX-2 22 Dec 09:54:40 09:56:31 13° 294° (WNW) 09:58:21 2200.000
QB50P1 22 Dec 10:01:40 10:05:51 75° 258° (WSW) 10:10:05 145.935-145.965
CUBEBUG 2 22 Dec 10:03:23 10:07:58 55° 285° (WNW) 10:12:36 437.445
ZACube-1 22 Dec 10:05:30 10:10:03 73° 284° (WNW) 10:14:38 437.345
GOMX 1 22 Dec 10:07:08 10:10:07 16° 293° (WNW) 10:13:12 467.674
YUBILEINY 22 Dec 10:08:23 10:16:57 58° 80° (E) 10:25:28 435.215
COMPASS 1 22 Dec 10:11:01 10:12:42 12° 294° (WNW) 10:14:23 437.405
50 SAT 22 Dec 10:13:45 10:17:52 63° 101° (E) 10:21:59 437.505
DELFI C3 22 Dec 10:13:59 10:17:30 28° 289° (WNW) 10:20:59 145.870
VELOX 1 22 Dec 10:14:07 10:18:32 71° 102° (ESE) 10:22:57 145.980
ANTELSAT 22 Dec 10:18:22 10:22:13 31° 263° (W) 10:26:11 437.575/2403.000
DOVE 4 22 Dec 10:23:46 10:26:27 15° 294° (WNW) 10:29:13 437.250
ESTCUBE 1 22 Dec 10:24:00 10:28:06 34° 98° (E) 10:32:10 437.505/2401.250
POPSAT HIP 1 22 Dec 10:31:09 10:34:55 32° 262° (W) 10:38:43 437.405
FUNcube-1 22 Dec 10:31:56 10:36:08 37° 288° (WNW) 10:40:20 145.935
CINEMA 3 22 Dec 10:34:14 10:37:28 18° 292° (WNW) 10:40:45 145.822/145.860
O/OREOS (USA 219) 22 Dec 10:36:39 10:40:43 33° 256° (WSW) 10:44:46 437.305
UWE-3 22 Dec 10:37:59 10:41:53 28° 290° (WNW) 10:45:50 435.000/436.395/437.385
RS-15 22 Dec 10:44:56 10:55:47 70° 114° (ESE) 11:06:36 29.354- 29.394
BUGSAT 1 22 Dec 10:47:55 10:51:18 25° 263° (W) 10:54:42 437.445
HO-68 22 Dec 10:48:16 10:51:27 14° 305° (NW) 10:54:38 435.675
DX 1 22 Dec 10:48:37 10:51:11 16° 294° (WNW) 10:53:44 434.975-435.025
HUMSAT D 22 Dec 10:51:32 10:55:31 36° 288° (WNW) 10:59:30 437.325/437.525
TIGRISAT 22 Dec 10:54:50 10:56:47 13° 268° (W) 10:58:46 435.000
CUBEBUG 1 22 Dec 10:57:10 11:01:30 81° 102° (ESE) 11:05:51 437.445
AISAT 22 Dec 10:58:48 11:02:49 34° 289° (WNW) 11:06:50 437.250
DUCHIFAT 1 22 Dec 10:59:29 11:02:04 16° 266° (W) 11:04:41 145.980
Oscar 19 22 Dec 11:09:38 11:12:27 15° 63° (ENE) 11:15:16 437.125/150
QB50P2 22 Dec 11:16:55 11:17:18 10° 269° (W) 11:17:40 145.880/145.840
BEESAT 2 22 Dec 11:28:06 11:31:24 24° 111° (ESE) 11:34:44 435.950
JUGNU 22 Dec 11:29:39 11:33:01 15° 175° (S) 11:36:23 437.505
TISAT 1 22 Dec 11:47:09 11:51:22 70° 102° (ESE) 11:55:35 437.305
SWISSCUBE 22 Dec 11:54:50 11:56:28 12° 91° (E) 11:58:06 437.505
ITUPSAT 1 22 Dec 11:56:42 11:57:45 11° 91° (E) 11:58:48 437.325
SPROUT 22 Dec 11:57:05 12:01:24 86° 102° (ESE) 12:05:43 437.525
ESTCUBE 1 22 Dec 12:01:31 12:04:42 19° 292° (WNW) 12:07:53 437.505/2401.250
YUBILEINY 22 Dec 12:06:18 12:13:05 27° 277° (W) 12:19:53 435.215
BEESAT 22 Dec 12:17:46 12:21:16 20° 95° (E) 12:24:45 436.000
ISS 22 Dec 12:17:51 12:21:08 71° 319° (NW) 12:24:26 145.825
BEESAT 3 22 Dec 12:23:27 12:27:31 67° 301° (WNW) 12:31:39 437.485
SRMSAT 22 Dec 12:37:15 12:40:23 15° 173° (S) 12:43:31 437.500
AIST 2 22 Dec 12:42:02 12:46:14 75° 118° (ESE) 12:50:31 435.215
Oscar 19 22 Dec 12:46:09 12:51:13 61° 259° (W) 12:56:20 437.125/150
AO-7 22 Dec 12:50:15 12:53:06 12° 49° (NE) 12:55:57 29.400- 29.500
PCSat 22 Dec 12:50:30 12:55:55 88° 296° (WNW) 13:01:22 145.827
RS-15 22 Dec 12:59:25 13:08:57 34° 317° (NW) 13:18:38 29.354- 29.394
BEESAT 2 22 Dec 13:05:59 13:09:31 27° 307° (NW) 13:13:05 435.950
ITAMSAT 1 22 Dec 13:06:24 13:11:34 77° 75° (ENE) 13:16:45 435.822/435.867
Gurwin Techsat 1B 22 Dec 13:13:44 13:18:52 54° 73° (ENE) 13:24:02 435.225
HORYU 2 22 Dec 13:16:09 13:19:14 19° 67° (ENE) 13:22:21 437.375
JUGNU 22 Dec 13:18:00 13:21:16 15° 186° (S) 13:24:32 437.505
SWISSCUBE 22 Dec 13:29:59 13:34:40 61° 286° (WNW) 13:39:20 437.505
ITUPSAT 1 22 Dec 13:31:18 13:36:02 65° 285° (WNW) 13:40:44 437.325
AUBIESAT-1 22 Dec 13:37:40 13:41:37 41° 103° (ESE) 13:45:13 437.475
BEESAT 22 Dec 13:54:50 13:59:10 36° 289° (WNW) 14:03:29 436.000
ISS 22 Dec 13:56:52 13:58:13 12° 337° (NNW) 13:59:34 145.825
M-CUBED/EXP-1 PRIME 22 Dec 14:04:44 14:08:59 78° 288° (WNW) 14:12:49 437.505
GONETS M04 22 Dec 14:11:27 14:13:54 11° 61° (ENE) 14:16:20
STARS 22 Dec 14:15:26 14:19:46 49° 100° (E) 14:24:04 437.465
JAS-2 22 Dec 14:20:27 14:24:38 16° 62° (ENE) 14:28:37 435.910
KKS-1 22 Dec 14:23:41 14:28:10 85° 284° (WNW) 14:32:39 437.445
AIST 2 22 Dec 14:23:48 14:25:22 12° 315° (NW) 14:26:57 435.215
SRMSAT 22 Dec 14:25:23 14:28:47 16° 184° (S) 14:32:10 437.500
AO-7 22 Dec 14:36:04 14:44:13 63° 68° (ENE) 14:52:25 29.400- 29.500
PCSat 22 Dec 14:37:40 14:40:06 13° 314° (NW) 14:42:32 145.827
ITAMSAT 1 22 Dec 14:50:47 14:51:33 10° 269° (W) 14:52:19 435.822/435.867
HORYU 2 22 Dec 14:51:31 14:55:37 36° 262° (W) 14:59:45 437.375
Gurwin Techsat 1B 22 Dec 14:55:52 14:59:06 16° 267° (W) 15:02:21 435.225
AUBIESAT-1 22 Dec 15:13:50 15:16:07 14° 300° (WNW) 15:18:17 437.475
RS-15 22 Dec 15:21:27 15:26:22 14° 351° (N) 15:31:20 29.354- 29.394
AIST 1 22 Dec 15:32:17 15:36:34 58° 94° (E) 15:40:52
MOZHAYETS 4 22 Dec 15:49:11 15:52:51 23° 95° (E) 15:56:30
STARS 22 Dec 15:53:32 15:55:47 14° 295° (WNW) 15:58:02 437.465
JAS-2 22 Dec 16:01:11 16:08:54 90° 77° (ENE) 16:15:56 435.910
GONETS M04 22 Dec 16:03:41 16:12:26 70° 81° (E) 16:21:04
SRMSAT 22 Dec 16:16:11 16:17:09 10° 194° (SSW) 16:18:06 437.500
Cubesat XI-IV 22 Dec 16:19:39 16:24:01 27° 67° (ENE) 16:28:23 437.490
AO-7 22 Dec 16:30:50 16:37:24 26° 264° (W) 16:44:02 29.400- 29.500
CUTE-I 22 Dec 16:51:19 16:56:28 52° 72° (ENE) 17:01:36 437.470
MaSat-1 22 Dec 17:12:18 17:14:36 38° 65° (ENE) 17:17:02 437.345
CUBESAT XI-V 22 Dec 17:19:31 17:22:02 15° 92° (E) 17:24:33 437.345
PRISM 22 Dec 17:20:12 17:23:50 29° 97° (E) 17:27:25 437.425
MOZHAYETS 4 22 Dec 17:26:04 17:30:02 29° 290° (WNW) 17:33:58
RS-15 22 Dec 17:37:31 17:45:18 21° 29° (NNE) 17:53:15 29.354- 29.394
JAS-2 22 Dec 17:50:33 17:54:23 15° 269° (W) 17:58:07 435.910
Cubesat XI-IV 22 Dec 17:59:07 18:03:55 34° 262° (W) 18:08:44 437.490
GONETS M04 22 Dec 18:02:15 18:08:18 21° 279° (W) 18:14:20
DANDE 22 Dec 18:05:29 18:09:07 13° 65° (ENE) 18:12:53 436.750
STRAND 1 22 Dec 18:23:06 18:28:08 60° 101° (E) 18:33:09 437.568
CUTE-I 22 Dec 18:33:27 18:36:47 17° 267° (W) 18:40:08 437.470
CUSAT 1 22 Dec 18:43:06 18:49:59 30° 72° (ENE) 18:57:10 437.405
SO-50 22 Dec 18:43:15 18:45:50 15° 108° (ESE) 18:48:28 436.795
ISS 22 Dec 18:48:22 18:51:29 40° 37° (NE) 18:54:34 145.825
CUBESAT XI-V 22 Dec 18:55:17 18:59:41 46° 287° (WNW) 19:04:03 437.345
PRISM 22 Dec 18:56:12 18:59:08 19° 292° (WNW) 19:02:04 437.425
CANX-2 22 Dec 19:07:51 19:11:25 26° 71° (ENE) 19:15:01 2200.000
BRITE-PL 22 Dec 19:19:56 19:23:44 35° 73° (ENE) 19:27:32 437.365/2234.400
HO-68 22 Dec 19:22:52 19:29:53 60° 70° (ENE) 19:36:55 435.675
COMPASS 1 22 Dec 19:22:52 19:26:21 25° 70° (ENE) 19:29:52 437.405
SEEDS 22 Dec 19:31:13 19:35:09 38° 73° (ENE) 19:39:07 437.485
GOMX 1 22 Dec 19:34:21 19:38:08 36° 72° (ENE) 19:41:58 467.674
CUTE 1.7 + AOD 2 22 Dec 19:37:38 19:41:47 54° 75° (ENE) 19:45:59 437.475
DANDE 22 Dec 19:45:36 19:53:39 69° 80° (E) 20:02:19 436.750
DOVE 4 22 Dec 19:48:30 19:52:19 38° 73° (ENE) 19:56:12 437.250
RS-15 22 Dec 19:49:11 20:00:26 65° 56° (NE) 20:12:10 29.354- 29.394
CINEMA 3 22 Dec 19:56:21 19:59:51 27° 70° (ENE) 20:03:26 145.822/145.860
UWE-3 22 Dec 19:58:05 20:00:22 14° 66° (ENE) 20:02:40 435.000/436.395/437.385
STRAND 1 22 Dec 20:04:02 20:06:46 15° 296° (WNW) 20:09:31 437.568
DX 1 22 Dec 20:04:46 20:08:23 26° 70° (ENE) 20:12:01 434.975-435.025
AISAT 22 Dec 20:20:13 20:22:12 13° 65° (ENE) 20:24:11 437.250
AAUSAT CUBESAT 2 22 Dec 20:20:27 20:24:39 73° 258° (WSW) 20:28:53 437.432
SO-50 22 Dec 20:21:32 20:25:53 48° 304° (NW) 20:30:25 436.795
Oscar 11 22 Dec 20:22:17 20:26:30 54° 75° (ENE) 20:30:45 145.826/435.025
CUSAT 1 22 Dec 20:25:25 20:33:21 60° 267° (W) 20:41:37 437.405
ISS 22 Dec 20:25:41 20:27:48 16° 231° (SW) 20:29:55 145.825
UKube-1 22 Dec 20:32:27 20:36:39 54° 74° (ENE) 20:40:53 .
CANX-2 22 Dec 20:43:57 20:47:17 22° 265° (W) 20:50:39 2200.000
BEESAT 3 22 Dec 20:45:53 20:49:39 32° 54° (NE) 20:53:22 437.485
COMPASS 1 22 Dec 20:58:40 21:02:00 22° 265° (W) 21:05:21 437.405
ZACube-1 22 Dec 20:59:11 21:03:18 63° 75° (ENE) 21:07:32 437.345
DELFI C3 22 Dec 20:59:11 21:03:15 63° 259° (W) 21:07:21 145.870
CUBEBUG 2 22 Dec 20:59:19 21:03:29 89° 258° (WSW) 21:07:47 437.445
50 SAT 22 Dec 20:59:55 21:03:19 27° 71° (ENE) 21:06:44 437.505
BRITE-PL 22 Dec 21:00:10 21:02:25 14° 267° (W) 21:04:40 437.365/2234.400
AIST 2 22 Dec 21:07:06 21:10:34 23° 51° (NE) 21:14:00 435.215
SEEDS 22 Dec 21:08:39 21:11:06 15° 267° (W) 21:13:34 437.485
VELOX 1 22 Dec 21:09:29 21:13:41 45° 73° (ENE) 21:17:54 145.980
TIGRISAT 22 Dec 21:11:45 21:14:04 14° 92° (E) 21:16:23 435.000
HO-68 22 Dec 21:12:33 21:17:56 23° 266° (W) 21:23:21 435.675
GOMX 1 22 Dec 21:14:12 21:16:26 14° 267° (W) 21:18:41 467.674
CUTE 1.7 + AOD 2 22 Dec 21:17:09 21:18:01 11° 269° (W) 21:18:53 437.475
YUBILEINY 22 Dec 21:17:13 21:18:57 11° 75° (ENE) 21:20:42 435.215
ESTCUBE 1 22 Dec 21:21:41 21:25:20 24° 69° (ENE) 21:28:58 437.505/2401.250
FUNcube-1 22 Dec 21:25:10 21:29:17 62° 259° (W) 21:33:32 145.935
QB50P2 22 Dec 21:27:42 21:29:01 11° 92° (E) 21:30:19 145.880/145.840
BEESAT 2 22 Dec 21:27:47 21:31:59 84° 61° (ENE) 21:36:06 435.950
DOVE 4 22 Dec 21:28:10 21:30:17 14° 268° (W) 21:32:25 437.250
DANDE 22 Dec 21:30:17 21:36:35 25° 274° (W) 21:43:12 436.750
UWE-3 22 Dec 21:32:34 21:36:30 41° 262° (W) 21:40:33 435.000/436.395/437.385
CINEMA 3 22 Dec 21:33:56 21:37:03 20° 266° (W) 21:40:13 145.822/145.860
POLYITAN 1 22 Dec 21:36:24 21:38:52 15° 93° (E) 21:41:19 437.675
NANOSAT C BR1 22 Dec 21:36:27 21:38:49 14° 93° (E) 21:41:10 145.865
UNISAT 6 22 Dec 21:40:45 21:44:52 29° 96° (E) 21:48:58 437.425
HUMSAT D 22 Dec 21:40:49 21:44:56 71° 259° (WSW) 21:49:07 437.325/437.525
DX 1 22 Dec 21:41:07 21:44:33 23° 264° (W) 21:48:01 434.975-435.025
PCSat 22 Dec 21:41:17 21:46:26 42° 58° (ENE) 21:51:31 145.827
QB50P1 22 Dec 21:50:31 21:53:48 21° 95° (E) 21:57:05 145.935-145.965
CUBEBUG 1 22 Dec 21:50:55 21:55:06 47° 74° (ENE) 21:59:16 437.445
AISAT 22 Dec 21:54:03 21:58:21 52° 260° (W) 22:02:40 437.250
Oscar 11 22 Dec 22:01:53 22:02:58 11° 269° (W) 22:04:04 145.826/435.025
RS-15 22 Dec 22:02:27 22:12:07 34° 255° (WSW) 22:22:10 29.354- 29.394
UKube-1 22 Dec 22:11:52 22:13:05 11° 268° (W) 22:14:19 .
ANTELSAT 22 Dec 22:12:28 22:17:12 67° 101° (E) 22:21:53 437.575/2403.000
POPSAT HIP 1 22 Dec 22:18:52 22:23:00 47° 100° (E) 22:27:07 437.405
BEESAT 3 22 Dec 22:24:34 22:27:35 20° 250° (WSW) 22:30:33 437.485
BUGSAT 1 22 Dec 22:32:17 22:36:16 52° 100° (E) 22:40:16 437.445
50 SAT 22 Dec 22:35:36 22:38:29 19° 265° (W) 22:41:24 437.505
TISAT 1 22 Dec 22:37:23 22:41:14 36° 72° (ENE) 22:45:05 437.305
AIST 2 22 Dec 22:45:26 22:49:11 30° 248° (WSW) 22:52:51 435.215
DUCHIFAT 1 22 Dec 22:45:27 22:49:43 82° 283° (WNW) 22:53:59 145.980
TIGRISAT 22 Dec 22:46:28 22:51:04 53° 286° (WNW) 22:55:39 435.000
VELOX 1 22 Dec 22:48:13 22:50:28 14° 267° (W) 22:52:44 145.980
SPROUT 22 Dec 22:48:49 22:52:54 46° 74° (ENE) 22:56:59 437.525
ESTCUBE 1 22 Dec 22:58:11 23:02:03 27° 263° (W) 23:05:56 437.505/2401.250
SWISSCUBE 22 Dec 23:00:02 23:01:24 11° 63° (ENE) 23:02:47 437.505
QB50P2 22 Dec 23:01:02 23:05:11 52° 286° (WNW) 23:09:20 145.880/145.840
ITUPSAT 1 22 Dec 23:02:08 23:02:59 10° 62° (ENE) 23:03:49 437.325
YUBILEINY 22 Dec 23:05:25 23:14:07 74° 93° (E) 23:22:47 435.215
O/OREOS (USA 219) 22 Dec 23:06:57 23:11:02 36° 104° (ESE) 23:15:08 437.305
NANOSAT C BR1 22 Dec 23:10:50 23:14:49 40° 287° (WNW) 23:18:49 145.865
POLYITAN 1 22 Dec 23:10:55 23:14:56 40° 287° (WNW) 23:18:57 437.675
UNISAT 6 22 Dec 23:17:39 23:21:29 25° 291° (WNW) 23:25:18 437.425
M-CUBED/EXP-1 PRIME 22 Dec 23:20:04 23:21:01 11° 57° (ENE) 23:21:59 437.505
BEESAT 22 Dec 23:22:24 23:25:38 18° 66° (ENE) 23:28:53 436.000
PCSat 22 Dec 23:25:20 23:29:32 23° 254° (WSW) 23:33:43 145.827
QB50P1 22 Dec 23:26:02 23:29:38 27° 289° (WNW) 23:33:15 145.935-145.965
CUBEBUG 1 22 Dec 23:29:44 23:31:41 13° 267° (W) 23:33:38 437.445
ANTELSAT 22 Dec 23:51:40 23:53:22 12° 296° (WNW) 23:55:05 437.575/2403.000
POPSAT HIP 1 22 Dec 23:56:24 23:58:28 13° 294° (WNW) 00:00:32 437.405
BUGSAT 1 23 Dec 00:10:14 00:11:17 11° 295° (WNW) 00:12:19 437.445
TISAT 1 23 Dec 00:14:39 00:17:09 15° 266° (W) 00:19:40 437.305
VERMONT LUNAR 23 Dec 00:21:34 00:24:23 23° 146° (SSE) 00:27:13 437.305
AUBIESAT-1 23 Dec 00:23:08 00:27:40 42° 68° (ENE) 00:32:17 437.475
SPROUT 23 Dec 00:27:21 00:29:12 13° 268° (W) 00:31:03 437.525
SWISSCUBE 23 Dec 00:33:50 00:38:37 72° 258° (WSW) 00:43:25 437.505
ITUPSAT 1 23 Dec 00:35:23 00:40:11 77° 257° (WSW) 00:45:00 437.325
O/OREOS (USA 219) 23 Dec 00:47:26 00:50:32 18° 300° (WNW) 00:53:39 437.305
PHONESAT 2.4 23 Dec 00:48:04 00:51:01 23° 146° (SSE) 00:53:58 2401.200-2431.200
M-CUBED/EXP-1 PRIME 23 Dec 00:50:23 00:55:14 90° 72° (ENE) 01:00:11 437.505
BEESAT 23 Dec 00:58:36 01:03:08 42° 261° (W) 01:07:41 436.000
Oscar 19 23 Dec 01:00:23 01:05:32 60° 101° (E) 01:10:38 437.125/150
YUBILEINY 23 Dec 01:05:28 01:11:41 21° 292° (WNW) 01:17:57 435.215
STARS 23 Dec 01:10:24 01:14:15 31° 71° (ENE) 01:18:07 437.465
KKS-1 23 Dec 01:19:18 01:23:39 62° 75° (ENE) 01:28:02 437.445
ITAMSAT 1 23 Dec 01:22:21 01:27:00 33° 98° (E) 01:31:39 435.822/435.867
Gurwin Techsat 1B 23 Dec 01:33:09 01:37:35 26° 96° (E) 01:41:59 435.225
AIST 1 23 Dec 01:44:55 01:46:06 11° 71° (ENE) 01:47:16
VERMONT LUNAR 23 Dec 01:58:55 02:02:27 77° 341° (NNW) 02:05:59 437.305
AUBIESAT-1 23 Dec 01:59:13 02:02:41 20° 262° (W) 02:06:13 437.475
PHONESAT 2.4 23 Dec 02:25:50 02:29:28 77° 341° (NNW) 02:33:06 2401.200-2431.200
Oscar 19 23 Dec 02:41:23 02:44:19 15° 296° (WNW) 02:47:16 437.125/150
AO-7 23 Dec 02:41:53 02:48:12 23° 95° (E) 02:54:28 29.400- 29.500
HORYU 2 23 Dec 02:45:22 02:49:48 52° 100° (E) 02:54:11 437.375
STARS 23 Dec 02:47:33 02:50:44 20° 265° (W) 02:53:56 437.465
MOZHAYETS 4 23 Dec 02:49:26 02:52:28 17° 67° (ENE) 02:55:30
ITAMSAT 1 23 Dec 03:02:06 03:06:18 26° 292° (WNW) 03:10:31 435.822/435.867
GONETS M04 23 Dec 03:09:48 03:14:02 15° 77° (ENE) 03:18:17
Gurwin Techsat 1B 23 Dec 03:12:48 03:17:31 33° 291° (WNW) 03:22:13 435.225
SO-50 23 Dec 03:17:57 03:18:45 10° 41° (NE) 03:19:33 436.795
AIST 1 23 Dec 03:19:56 03:24:04 50° 267° (W) 03:28:09
VERMONT LUNAR 23 Dec 03:37:40 03:41:01 39° 358° (N) 03:44:21 437.305
PHONESAT 2.4 23 Dec 04:04:58 04:08:24 40° 358° (N) 04:11:51 2401.200-2431.200
PRISM 23 Dec 04:09:22 04:12:05 17° 67° (ENE) 04:14:49 437.425
CUBESAT XI-V 23 Dec 04:22:00 04:23:33 12° 64° (ENE) 04:25:05 437.345
HORYU 2 23 Dec 04:23:46 04:25:58 14° 295° (WNW) 04:28:10 437.375
MOZHAYETS 4 23 Dec 04:24:56 04:29:19 42° 262° (W) 04:33:44
AO-7 23 Dec 04:33:12 04:41:29 68° 291° (WNW) 04:49:44 29.400- 29.500
Cubesat XI-IV 23 Dec 04:41:14 04:43:18 12° 91° (E) 04:45:21 437.490
SO-50 23 Dec 04:55:14 05:00:09 71° 59° (ENE) 05:05:02 436.795
JAS-2 23 Dec 04:59:51 05:05:20 79° 285° (WNW) 05:10:29 435.910
GONETS M04 23 Dec 05:00:37 05:09:28 87° 95° (E) 05:18:21
CUTE-I 23 Dec 05:11:41 05:16:04 26° 96° (E) 05:20:26 437.470
VERMONT LUNAR 23 Dec 05:16:10 05:19:38 57° 15° (NNE) 05:23:07 437.305
STRAND 1 23 Dec 05:36:18 05:41:22 66° 74° (ENE) 05:46:26 437.568
PRISM 23 Dec 05:43:26 05:47:18 35° 262° (W) 05:51:12 437.425
PHONESAT 2.4 23 Dec 05:43:50 05:47:25 59° 15° (NNE) 05:51:00 2401.200-2431.200
CUBESAT XI-V 23 Dec 05:55:45 06:00:24 65° 259° (W) 06:05:02 437.345
